Change the Weather History Date:

Friday, March 14, 2014

  Actual Average Record
Temperature  
Mean Temperature 52 °F -  
Max Temperature 66 °F 65 °F 85 °F (1967)
Min Temperature 37 °F 39 °F 15 °F (1993)
Degree Days  
Heating Degree Days 14    
Growing Degree Days 2 (Base 50)    
Moisture  
Dew Point 32 °F    
Average Humidity 49    
Maximum Humidity 75    
Minimum Humidity 26    
Precipitation  
Precipitation 0.00 in - - ()
Sea Level Pressure  
Sea Level Pressure 30.12 in    
Wind  
Wind Speed 9 mph (SSW)    
Max Wind Speed 21 mph    
Max Gust Speed 31 mph    
Visibility 10 miles    
Events Rain    
Averages and records for this station are not official NWS values.
T = Trace of Precipitation, MM = Missing Value Source: NWS Daily Summary

Daily Weather History Graph

Daily Weather History Graph

Search for Another Location

Airport or City:

Trip Planner

Search our weather history database for the weather conditions in past years. The results will help you decide how hot, cold, wet, or windy it might be!

Date:

Astronomy

Mar. 14, 2014 Rise Set
Actual Time 7:06 AM CDT 7:01 PM CDT
Civil Twilight 6:41 AM CDT 7:26 PM CDT
Nautical Twilight 6:11 AM CDT 7:55 PM CDT
Astronomical Twilight 5:42 AM CDT 8:25 PM CDT
Moon 5:25 PM CDT (3/14) 5:42 AM CDT (3/14)
Length of Visible Light 12h 45m
Length of Day
11h 54m
Waxing Gibbous, 96% of the Moon is Illuminated
Mar 14
Waxing Gibbous
Mar 16
Full
Mar 23
Last Quarter
Mar 30
New
Apr 7
First Quarter

Hourly Weather History & Observations

Time (CDT) Temp. Windchill Dew Point Humidity Pressure Visibility Wind Dir Wind Speed Gust Speed Precip Events Conditions
12:10 AM 42.8 °F 38.6 °F 30.2 °F 61% 30.16 in 10.0 mi SSE 6.9 mph - N/A   Clear
12:30 AM 41.0 °F 36.4 °F 30.2 °F 65% 30.16 in 10.0 mi SSE 6.9 mph - N/A   Clear
12:50 AM 41.0 °F 36.4 °F 30.2 °F 65% 30.16 in 10.0 mi South 6.9 mph - N/A   Clear
1:10 AM 42.8 °F 39.3 °F 30.2 °F 61% 30.16 in 10.0 mi South 5.8 mph - N/A   Clear
1:30 AM 44.6 °F 39.7 °F 30.2 °F 57% 30.17 in 10.0 mi South 9.2 mph - N/A   Clear
1:50 AM 46.4 °F 42.4 °F 30.2 °F 53% 30.16 in 10.0 mi South 8.1 mph - N/A   Clear
2:10 AM 44.6 °F 40.2 °F 32.0 °F 61% 30.16 in 10.0 mi South 8.1 mph - N/A   Clear
2:30 AM 42.8 °F 38.0 °F 30.2 °F 61% 30.16 in 10.0 mi South 8.1 mph - N/A   Clear
2:50 AM 41.0 °F 36.4 °F 30.2 °F 65% 30.16 in 10.0 mi SE 6.9 mph - N/A   Clear
3:10 AM 39.2 °F 34.2 °F 32.0 °F 75% 30.15 in 10.0 mi SE 6.9 mph - N/A   Clear
3:30 AM 37.4 °F 32.8 °F 30.2 °F 75% 30.14 in 10.0 mi SE 5.8 mph - N/A   Clear
3:50 AM 37.4 °F 32.8 °F 30.2 °F 75% 30.14 in 10.0 mi SSE 5.8 mph - N/A   Clear
4:10 AM 37.4 °F 32.1 °F 30.2 °F 75% 30.14 in 10.0 mi SSE 6.9 mph - N/A   Clear
4:30 AM 37.4 °F 32.1 °F 30.2 °F 75% 30.15 in 10.0 mi SSE 6.9 mph - N/A   Clear
4:50 AM 39.2 °F 35.0 °F 30.2 °F 70% 30.15 in 10.0 mi South 5.8 mph - N/A   Clear
5:10 AM 39.2 °F 34.2 °F 30.2 °F 70% 30.15 in 10.0 mi SSE 6.9 mph - N/A   Clear
5:30 AM 39.2 °F 34.2 °F 30.2 °F 70% 30.16 in 10.0 mi South 6.9 mph - N/A   Clear
5:50 AM 37.4 °F 32.1 °F 30.2 °F 75% 30.15 in 10.0 mi South 6.9 mph - N/A   Clear
6:10 AM 37.4 °F 32.1 °F 30.2 °F 75% 30.16 in 10.0 mi SSE 6.9 mph - N/A   Clear
6:30 AM 37.4 °F 31.4 °F 30.2 °F 75% 30.17 in 10.0 mi SSE 8.1 mph - N/A   Clear
6:50 AM 37.4 °F 32.1 °F 30.2 °F 75% 30.17 in 10.0 mi South 6.9 mph - N/A   Clear
7:10 AM 37.4 °F 30.8 °F 30.2 °F 75% 30.17 in 10.0 mi South 9.2 mph - N/A   Clear
7:30 AM 39.2 °F 33.0 °F 32.0 °F 75% 30.17 in 10.0 mi SSE 9.2 mph - N/A   Clear
7:50 AM 39.2 °F 33.6 °F 32.0 °F 75% 30.18 in 10.0 mi SSE 8.1 mph - N/A   Clear
8:10 AM 42.8 °F 38.0 °F 32.0 °F 66% 30.19 in 10.0 mi South 8.1 mph - N/A   Clear
8:30 AM 44.6 °F 38.8 °F 32.0 °F 61% 30.19 in 10.0 mi SSE 11.5 mph - N/A   Clear
8:50 AM 48.2 °F - 32.0 °F 54% 30.18 in 10.0 mi South 12.7 mph 17.3 mph N/A   Clear
9:10 AM 50.0 °F - 32.0 °F 50% 30.19 in 10.0 mi South 13.8 mph - N/A   Clear
9:30 AM 50.0 °F - 32.0 °F 50% 30.19 in 10.0 mi South 9.2 mph - N/A   Clear
9:50 AM 53.6 °F - 32.0 °F 44% 30.19 in 10.0 mi SSW 10.4 mph - N/A   Clear
10:10 AM 53.6 °F - 32.0 °F 44% 30.19 in 10.0 mi South 10.4 mph 16.1 mph N/A   Clear
10:30 AM 57.2 °F - 32.0 °F 38% 30.19 in 10.0 mi South 10.4 mph - N/A   Clear
10:50 AM 59.0 °F - 32.0 °F 36% 30.18 in 10.0 mi SSW 13.8 mph - N/A   Clear
11:10 AM 59.0 °F - 32.0 °F 36% 30.18 in 10.0 mi SSW 16.1 mph 25.3 mph N/A   Clear
11:30 AM 60.8 °F - 32.0 °F 34% 30.17 in 10.0 mi SSW 17.3 mph 26.5 mph N/A   Clear
11:50 AM 62.6 °F - 32.0 °F 32% 30.15 in 10.0 mi SW 17.3 mph 29.9 mph N/A   Clear
12:10 PM 62.6 °F - 32.0 °F 32% 30.14 in 10.0 mi SW 12.7 mph 28.8 mph N/A   Clear
12:30 PM 64.4 °F - 30.2 °F 28% 30.14 in 10.0 mi SW 16.1 mph 27.6 mph N/A   Clear
12:50 PM 64.4 °F - 32.0 °F 30% 30.13 in 10.0 mi SSW 15.0 mph 25.3 mph N/A   Clear
1:10 PM 64.4 °F - 30.2 °F 28% 30.11 in 10.0 mi WSW 13.8 mph 25.3 mph N/A   Clear
1:30 PM 64.4 °F - 32.0 °F 30% 30.10 in 10.0 mi SSW 18.4 mph 26.5 mph N/A   Clear
1:50 PM 64.4 °F - 32.0 °F 30% 30.09 in 10.0 mi SSW 16.1 mph 24.2 mph N/A   Clear
2:10 PM 64.4 °F - 30.2 °F 28% 30.07 in 10.0 mi SSW 16.1 mph 23.0 mph N/A   Clear
2:30 PM 64.4 °F - 30.2 °F 28% 30.07 in 10.0 mi SSW 16.1 mph 27.6 mph N/A   Partly Cloudy
2:50 PM 64.4 °F - 32.0 °F 30% 30.06 in 10.0 mi SSW 17.3 mph 26.5 mph N/A   Clear
3:10 PM 64.4 °F - 30.2 °F 28% 30.06 in 10.0 mi SW 17.3 mph 24.2 mph N/A   Clear
3:30 PM 64.4 °F - 32.0 °F 30% 30.05 in 10.0 mi SW 12.7 mph 20.7 mph N/A   Clear
3:50 PM 66.2 °F - 30.2 °F 26% 30.06 in 10.0 mi WSW 20.7 mph 25.3 mph N/A   Clear
4:10 PM 64.4 °F - 32.0 °F 30% 30.06 in 10.0 mi SW 15.0 mph 25.3 mph N/A   Mostly Cloudy
4:30 PM 64.4 °F - 28.4 °F 26% 30.06 in 10.0 mi SW 16.1 mph 21.9 mph N/A   Mostly Cloudy
4:50 PM 64.4 °F - 30.2 °F 28% 30.06 in 10.0 mi WSW 16.1 mph 23.0 mph N/A   Mostly Cloudy
5:10 PM 62.6 °F - 28.4 °F 27% 30.07 in 10.0 mi WSW 15.0 mph 31.1 mph N/A Rain Light Rain
5:30 PM 62.6 °F - 32.0 °F 32% 30.08 in 10.0 mi West 12.7 mph 17.3 mph N/A   Mostly Cloudy
5:50 PM 62.6 °F - 32.0 °F 32% 30.08 in 10.0 mi West 9.2 mph 16.1 mph N/A   Mostly Cloudy
6:10 PM 60.8 °F - 32.0 °F 34% 30.10 in 10.0 mi WNW 10.4 mph - N/A   Overcast
6:30 PM 59.0 °F - 32.0 °F 36% 30.11 in 10.0 mi WSW 12.7 mph 18.4 mph N/A   Overcast
6:50 PM 59.0 °F - 32.0 °F 36% 30.09 in 10.0 mi SSW 12.7 mph - N/A   Overcast
7:10 PM 59.0 °F - 32.0 °F 36% 30.09 in 10.0 mi SW 9.2 mph - N/A   Overcast
7:30 PM 59.0 °F - 32.0 °F 36% 30.08 in 10.0 mi SSW 9.2 mph - N/A   Mostly Cloudy
7:50 PM 59.0 °F - 33.8 °F 39% 30.08 in 10.0 mi SSW 10.4 mph - N/A   Overcast
8:10 PM 59.0 °F - 35.6 °F 42% 30.08 in 10.0 mi SSW 9.2 mph - N/A   Overcast
8:30 PM 59.0 °F - 35.6 °F 42% 30.07 in 10.0 mi SSW 10.4 mph - N/A   Overcast
8:50 PM 57.2 °F - 35.6 °F 44% 30.07 in 10.0 mi SSW 6.9 mph - N/A   Scattered Clouds
9:10 PM 57.2 °F - 35.6 °F 44% 30.07 in 10.0 mi South 5.8 mph - N/A   Clear
9:30 PM 55.4 °F - 35.6 °F 47% 30.08 in 10.0 mi SSW 5.8 mph - N/A   Clear
9:50 PM 55.4 °F - 35.6 °F 47% 30.08 in 10.0 mi SW 4.6 mph - N/A   Clear
10:10 PM 53.6 °F - 35.6 °F 51% 30.09 in 10.0 mi SW 3.5 mph - N/A   Clear
10:30 PM 55.4 °F - 35.6 °F 47% 30.09 in 10.0 mi SW 3.5 mph - N/A   Clear
10:50 PM 51.8 °F - 35.6 °F 54% 30.09 in 10.0 mi SSW 5.8 mph - N/A   Clear
11:10 PM 53.6 °F - 35.6 °F 51% 30.08 in 10.0 mi SSW 3.5 mph - N/A   Clear
11:30 PM 48.2 °F - 35.6 °F 62% 30.08 in 10.0 mi Calm Calm - N/A   Clear
11:50 PM 48.2 °F - 35.6 °F 62% 30.08 in 10.0 mi Calm Calm - N/A   Clear